DMSP 5D-2 F13 DEB, 40490

Orbit data source: Space-Track

DMSP 5D-2 F13 DEB, 40490 is space debris in SSO originally from a launch on Fri, 24 Mar 1995 UTC launched from the Air Force Western Test Range (AFWTR). Debris objects in space refer to the collection of defunct objects orbiting the Earth. Examples of debris include non-operational satellites, rocket bodies, and fragments generated from explosions, collisions, or faulty payload assembly.

Loading next visibility...
Identifier
40490, 1995-015CD
Orbit
SSO
Country
Flag of USUS
Related business
Manufacturer
Unknown
Mission
Spacecraft
Bus & Motor
Unknown
Mass
Unknown
Launch date (UTC)
1995-03-24 (31 years ago)
Launch vehicle
Unknown
Launch site
Air Force Western Test Range (AFWTR)
Object type
Payload
Rocket body
Debris
Shape & HBR
Unknown shape, 0.1 m
Radar Cross Section
Small (<0.1 m²)

Expand to show TLE details & history
Last TLE update: 1 day ago

TLE from 1 day ago
0 DMSP 5D-2 F13 DEB
1 40490U 95015CD  25340.67624194  .00003850  00000-0  28234-2 0  9997
2 40490  98.7613 122.4464 0156231 341.7863  17.7739 13.90713071541866
Epoch: 2025-12-06T16:13Z
TLE epoch observation values (Epoch: 2025-12-06T16:13:47.303Z)
Latitude
-0.00005°
Longitude
163.29875°
Altitude
820.487 km
Speed
7.498 km/s
True Right ascension
08h 09m 47s
True Declination
0° 00' 00"
Sunlit
Object was in full shadow at epoch
Visualization orbit readout
Latitude
Unknown
Longitude
Unknown
Altitude
Unknown
Speed
Unknown
Apparent Right ascension
Unknown
Apparent Declination
Unknown
Sunlit
N/A
Visualization observer readout
Local Sidereal Time
14:33:48
Azimuth
Unknown
Elevation
Unknown
Doppler factor
Unknown
Orbital elements
Apogee altitude
1,037.404 km
Perigee altitude
809.261 km
Semi-major axis
7,301.469 km
Eccentricity
0.01562
Inclination
98.7613°
RAAN
122.4464°
Arg. of periapsis
341.7863°
True anomaly
18.33074°
Mean anomaly
17.7739°
Eccentric anomaly
18.05127°
Mean motion
3.47879 °/min
Orbital period
103.48 mins
BSTAR
0.0028234
Loading maneuver chart data...
Computing Atmospheric mass density...

Documentation

Showing up to 5 results
|